Weather History for Brookhaven, MS

Change the Weather History Date:

Wednesday, May 15, 2013

  Actual Average (KMCB) Record (KMCB)
Temperature  
Mean Temperature 68 °F -  
Max Temperature 82 °F 83 °F 94 °F (1963)
Min Temperature 55 °F 60 °F 46 °F (2014)
Cooling Degree Days 4    
Growing Degree Days 18 (Base 50)    
Moisture  
Dew Point 59 °F    
Average Humidity 69    
Maximum Humidity 100    
Minimum Humidity 45    
Precipitation  
Precipitation 0.00 in - - ()
Sea Level Pressure  
Sea Level Pressure 30.15 in    
Wind  
Wind Speed 3 mph (South)    
Max Wind Speed 12 mph    
Max Gust Speed 16 mph    
Visibility 10 miles    
Events      
Averages and records for this station are not official NWS values.
T = Trace of Precipitation, MM = Missing Value Source: NWS Daily Summary

Daily Weather History Graph

Daily Weather History Graph

Search for Another Location

Airport:

Trip Planner

Search our weather history database for the weather conditions in past years. The results will help you decide how hot, cold, wet, or windy it might be!

Date:

Astronomy

May. 15, 2013 Rise Set
Actual Time 6:04 AM CDT 7:51 PM CDT
Civil Twilight 5:38 AM CDT 8:18 PM CDT
Nautical Twilight 5:06 AM CDT 8:50 PM CDT
Astronomical Twilight 4:31 AM CDT 9:24 PM CDT
Moon 10:37 AM CDT (5/15) No Moon Set
Length of Visible Light 14h 40m
Length of Day
13h 46m
Waxing Crescent, 27% of the Moon is Illuminated
May 15
Waxing Crescent
May 17
First Quarter
May 24
Full
May 31
Last Quarter
Jun 8
New

Hourly Weather History & Observations

Time (CDT) Temp. Heat Index Dew Point Humidity Pressure Visibility Wind Dir Wind Speed Gust Speed Precip Events Conditions
12:15 AM 64.4 °F - 57.2 °F 77% 30.19 in 10.0 mi Calm Calm - N/A   Clear
12:35 AM 62.6 °F - 57.2 °F 82% 30.19 in 10.0 mi Calm Calm - N/A   Clear
12:55 AM 62.6 °F - 57.2 °F 82% 30.19 in 10.0 mi Calm Calm - N/A   Clear
1:15 AM 62.6 °F - 57.2 °F 82% 30.19 in 10.0 mi Calm Calm - N/A   Clear
1:35 AM 62.6 °F - 57.2 °F 82% 30.19 in 10.0 mi Calm Calm - N/A   Clear
1:55 AM 64.4 °F - 55.4 °F 73% 30.19 in 10.0 mi SW 3.5 mph - N/A   Clear
2:15 AM 64.4 °F - 55.4 °F 73% 30.19 in 10.0 mi SW 5.8 mph - N/A   Clear
2:35 AM 64.4 °F - 53.6 °F 68% 30.19 in 10.0 mi SSW 5.8 mph - N/A   Clear
2:55 AM 62.6 °F - 53.6 °F 72% 30.19 in 10.0 mi SSW 4.6 mph - N/A   Clear
3:15 AM 62.6 °F - 53.6 °F 72% 30.19 in 10.0 mi SSW 3.5 mph - N/A   Clear
3:35 AM 60.8 °F - 53.6 °F 77% 30.19 in 10.0 mi Calm Calm - N/A   Clear
3:55 AM 59.0 °F - 53.6 °F 82% 30.20 in 10.0 mi Calm Calm - N/A   Clear
4:15 AM 59.0 °F - 53.6 °F 82% 30.20 in 10.0 mi Calm Calm - N/A   Clear
4:35 AM 59.0 °F - 53.6 °F 82% 30.19 in 10.0 mi SSW 3.5 mph - N/A   Clear
4:55 AM 57.2 °F - 53.6 °F 88% 30.19 in 10.0 mi Calm Calm - N/A   Clear
5:15 AM 57.2 °F - 53.6 °F 88% 30.19 in 10.0 mi Calm Calm - N/A   Clear
5:35 AM 55.4 °F - 55.4 °F 100% 30.19 in 10.0 mi Calm Calm - N/A   Clear
5:55 AM 55.4 °F - 53.6 °F 94% 30.19 in 9.0 mi Calm Calm - N/A   Clear
6:15 AM 55.4 °F - 53.6 °F 94% 30.20 in 7.0 mi Calm Calm - N/A   Clear
6:35 AM 55.4 °F - 55.4 °F 100% 30.20 in 8.0 mi Calm Calm - N/A   Clear
6:55 AM 57.2 °F - 55.4 °F 94% 30.21 in 8.0 mi Calm Calm - N/A   Clear
7:15 AM 60.8 °F - 57.2 °F 88% 30.22 in 10.0 mi Calm Calm - N/A   Clear
7:35 AM 62.6 °F - 57.2 °F 82% 30.22 in 9.0 mi Calm Calm - N/A   Clear
7:55 AM 64.4 °F - 59.0 °F 83% 30.22 in 8.0 mi Calm Calm - N/A   Clear
8:15 AM 66.2 °F - 60.8 °F 83% 30.22 in 9.0 mi Calm Calm - N/A   Clear
8:35 AM 69.8 °F - 62.6 °F 78% 30.22 in 9.0 mi SSW 5.8 mph - N/A   Clear
8:55 AM 69.8 °F - 62.6 °F 78% 30.22 in 9.0 mi SSW 5.8 mph - N/A   Clear
9:15 AM 71.6 °F - 62.6 °F 73% 30.22 in 9.0 mi WSW 5.8 mph - N/A   Clear
9:35 AM 73.4 °F - 62.6 °F 69% 30.22 in 10.0 mi WSW 5.8 mph - N/A   Clear
9:55 AM 73.4 °F - 62.6 °F 69% 30.21 in 7.0 mi WSW 6.9 mph - N/A   Clear
10:15 AM 75.2 °F - 62.6 °F 65% 30.21 in 9.0 mi Calm Calm - N/A   Clear
10:35 AM 75.2 °F - 60.8 °F 61% 30.22 in 5.0 mi SSW 5.8 mph - N/A   Haze
10:55 AM 77.0 °F - 60.8 °F 57% 30.22 in 10.0 mi South 5.8 mph - N/A   Clear
11:15 AM 78.8 °F - 59.0 °F 51% 30.21 in 9.0 mi SSE 8.1 mph - N/A   Clear
11:35 AM 78.8 °F - 59.0 °F 51% 30.20 in 10.0 mi SSE 8.1 mph - N/A   Clear
11:55 AM 78.8 °F - 60.8 °F 54% 30.20 in 10.0 mi South 6.9 mph - N/A   Clear
12:15 PM 78.8 °F - 60.8 °F 54% 30.19 in 10.0 mi South 8.1 mph - N/A   Clear
12:35 PM 78.8 °F - 59.0 °F 51% 30.18 in 10.0 mi South 6.9 mph - N/A   Clear
12:55 PM 78.8 °F - 57.2 °F 47% 30.18 in 10.0 mi SSW 6.9 mph - N/A   Clear
1:15 PM 80.6 °F 80.8 °F 57.2 °F 45% 30.17 in 10.0 mi SSE 8.1 mph - N/A   Partly Cloudy
1:35 PM 80.6 °F 80.8 °F 57.2 °F 45% 30.16 in 10.0 mi South 8.1 mph - N/A   Clear
1:55 PM 80.6 °F 81.1 °F 59.0 °F 48% 30.15 in 10.0 mi South 11.5 mph 16.1 mph N/A   Partly Cloudy
2:15 PM 80.6 °F 81.1 °F 59.0 °F 48% 30.14 in 10.0 mi SSE 8.1 mph - N/A   Clear
2:35 PM 80.6 °F 81.5 °F 60.8 °F 51% 30.13 in 10.0 mi South 5.8 mph - N/A   Clear
2:55 PM 82.4 °F 82.5 °F 59.0 °F 45% 30.12 in 9.0 mi South 6.9 mph 16.1 mph N/A   Partly Cloudy
3:15 PM 82.4 °F 82.9 °F 60.8 °F 48% 30.11 in 10.0 mi SSE 6.9 mph - N/A   Partly Cloudy
3:35 PM 80.6 °F 81.5 °F 60.8 °F 51% 30.10 in 10.0 mi SSE 9.2 mph - N/A   Clear
3:55 PM 82.4 °F 82.9 °F 60.8 °F 48% 30.10 in 10.0 mi South 5.8 mph - N/A   Partly Cloudy
4:15 PM 80.6 °F 81.1 °F 59.0 °F 48% 30.10 in 10.0 mi South 6.9 mph - N/A   Partly Cloudy
4:35 PM 80.6 °F 81.5 °F 60.8 °F 51% 30.09 in 10.0 mi South 8.1 mph - N/A   Clear
4:55 PM 80.6 °F 81.5 °F 60.8 °F 51% 30.08 in 10.0 mi SSE 9.2 mph - N/A   Clear
5:15 PM 78.8 °F - 60.8 °F 54% 30.07 in 10.0 mi SSE 3.5 mph - N/A   Clear
5:35 PM 75.2 °F - 60.8 °F 61% 30.06 in 10.0 mi SSE 5.8 mph - N/A   Clear
5:55 PM 75.2 °F - 60.8 °F 61% 30.06 in 10.0 mi SSE 3.5 mph - N/A   Clear
6:15 PM 75.2 °F - 59.0 °F 57% 30.06 in 10.0 mi Calm Calm - N/A   Clear
6:35 PM 75.2 °F - 59.0 °F 57% 30.05 in 10.0 mi SSE 3.5 mph - N/A   Clear
6:55 PM 73.4 °F - 59.0 °F 61% 30.05 in 10.0 mi SSE 4.6 mph - N/A   Clear
7:15 PM 73.4 °F - 59.0 °F 61% 30.05 in 10.0 mi SSE 3.5 mph - N/A   Clear
7:35 PM 71.6 °F - 60.8 °F 69% 30.05 in 10.0 mi Calm Calm - N/A   Clear
7:55 PM 71.6 °F - 60.8 °F 69% 30.05 in 10.0 mi Calm Calm - N/A   Clear
8:15 PM 71.6 °F - 60.8 °F 69% 30.05 in 10.0 mi Calm Calm - N/A   Clear
8:35 PM 71.6 °F - 60.8 °F 69% 30.05 in 10.0 mi SSE 3.5 mph - N/A   Clear
8:55 PM 71.6 °F - 60.8 °F 69% 30.05 in 10.0 mi SSE 5.8 mph - N/A   Clear
9:15 PM 71.6 °F - 60.8 °F 69% 30.05 in 10.0 mi Calm Calm - N/A   Clear
9:35 PM 69.8 °F - 60.8 °F 73% 30.06 in 10.0 mi Calm Calm - N/A   Clear
9:55 PM 68.0 °F - 60.8 °F 78% 30.06 in 10.0 mi SSE 4.6 mph - N/A   Clear
10:15 PM 69.8 °F - 60.8 °F 73% 30.05 in 10.0 mi SSE 5.8 mph - N/A   Clear
10:35 PM 68.0 °F - 60.8 °F 78% 30.06 in 10.0 mi Calm Calm - N/A   Clear
10:55 PM 66.2 °F - 60.8 °F 83% 30.06 in 10.0 mi SE 3.5 mph - N/A   Clear
11:15 PM 66.2 °F - 60.8 °F 83% 30.06 in 10.0 mi Calm Calm - N/A   Clear
11:35 PM 64.4 °F - 60.8 °F 88% 30.06 in 10.0 mi Calm Calm - N/A   Clear
11:55 PM 64.4 °F - 60.8 °F 88% 30.06 in 10.0 mi Calm Calm - N/A   Clear